Home > Time Zones > World Clock > Weather > Norway > Ski > Past weeks

Flag for Norway Weather past 2 weeks in Ski, Norway

Now
45 °F

Overcast.


Feels Like: 35 °F
Forecast: 35 / 56 °F
Wind: 29 mph from Southwest

Location: Oslo / Fornebu


UV Index: 0 (Low)

Visibility: N/A


Pressure: 30.09 "Hg

Humidity: 87%

Dew point: 41 °F

Location of SkiLocation

Historic Weather in Ski

°F

Ski temperature yesterday

Maximum temperature yesterday: 46 °F (at 12:50 PM)
Minimum temperature yesterday: 41 °F (at 10:20 PM)
Average temperature yesterday: 44 °F

Past Weeks' High & Low Weather Summary

 TemperatureHumidityPressure
High50 °F (Apr 7, 2:50 PM)100% (Apr 5, 4:20 PM)30.33 "Hg (Apr 5, 4:20 PM)
Low37 °F (Apr 14, 1:20 PM)49% (Apr 18, 3:20 AM)29.12 "Hg (Apr 12, 7:20 PM)
Average45 °F82%29.73 "Hg
* Reported Apr 3 10:20 PM — Apr 18 10:20 PM, Ski, Weather by CustomWeather, © 2014

Note: Actual official high and low records may vary slightly from our data, if they occured in-between our weather recording intervals... More about our weather records

Advertising

Historic Weather Conditions — Data for Previous 24 hours

 ConditionsComfort  
Time TempWeatherWind HumidityBarometerVisibility
10:20 PM
Apr 18
45 °FOvercast.30 mph87%30.09 "HgN/A
9:50 PM45 °FOvercast.30 mph87%30.09 "HgN/A
9:20 PM45 °FPartly sunny.31 mph87%30.07 "HgN/A
8:50 PM45 °FOvercast.29 mph87%30.07 "HgN/A
8:20 PM45 °FOvercast.29 mph87%30.07 "HgN/A
7:50 PM45 °FPartly sunny.28 mph81%30.07 "HgN/A
7:20 PM45 °FPartly sunny.28 mph81%30.07 "HgN/A
6:50 PM45 °FOvercast.28 mph76%30.07 "HgN/A
6:20 PM45 °FMore clouds than sun.23 mph76%30.09 "HgN/A
5:50 PM45 °FOvercast.24 mph76%30.07 "HgN/A
5:20 PM45 °FPartly sunny.22 mph76%30.07 "HgN/A
4:50 PM45 °FPassing clouds.21 mph71%30.09 "HgN/A
4:20 PM43 °FQuite cool.20 mph76%30.09 "HgN/A
3:50 PM45 °FPassing clouds.21 mph66%30.09 "HgN/A
3:20 PM45 °FPassing clouds.20 mph66%30.09 "HgN/A
2:50 PM45 °FPassing clouds.20 mph66%30.09 "HgN/A
2:20 PM45 °FQuite cool.18 mph66%30.09 "HgN/A
1:50 PM45 °FQuite cool.17 mph61%30.09 "HgN/A
1:20 PM45 °FQuite cool.16 mph61%30.09 "HgN/A
12:50 PM45 °FPartly sunny.14 mph57%30.07 "HgN/A
12:20 PM45 °FOvercast.12 mph57%30.07 "HgN/A
11:50 AM43 °FOvercast.10 mph61%30.09 "HgN/A
11:20 AM43 °FOvercast.10 mph61%30.09 "HgN/A
10:50 AM43 °FPartly sunny.7 mph57%30.09 "HgN/A
10:20 AM43 °FPartly sunny.6 mph57%30.07 "HgN/A
9:50 AM43 °FOvercast.5 mph57%30.07 "HgN/A
9:20 AM43 °FBroken clouds.6 mph61%30.07 "HgN/A
8:50 AM41 °FPartly sunny.7 mph61%30.07 "HgN/A
8:20 AM41 °FPartly sunny.8 mph61%30.04 "HgN/A
7:50 AM41 °FPartly sunny.12 mph61%30.04 "HgN/A
7:20 AM41 °FPartly sunny.13 mph57%30.04 "HgN/A
6:50 AM41 °FPassing clouds.12 mph61%30.01 "HgN/A
6:20 AM41 °FPassing clouds.14 mph57%30.01 "HgN/A
5:50 AM41 °FPassing clouds.16 mph57%30.01 "HgN/A
5:20 AM41 °FPassing clouds.18 mph57%30.01 "HgN/A
4:50 AM41 °FPassing clouds.20 mph57%29.98 "HgN/A
4:20 AM41 °FOvercast.21 mph57%29.98 "HgN/A
3:50 AM41 °FPassing clouds.21 mph61%29.98 "HgN/A
3:20 AM41 °FPassing clouds.23 mph49%29.95 "HgN/A
2:50 AM41 °FPassing clouds.24 mph57%29.95 "HgN/A
2:20 AM41 °FPassing clouds.26 mph61%29.92 "HgN/A
1:50 AM41 °FPassing clouds.29 mph70%29.92 "HgN/A
1:20 AM41 °FPassing clouds.31 mph70%29.89 "HgN/A
12:50 AM41 °FPassing clouds.32 mph81%29.89 "HgN/A
12:20 AM41 °FPartly cloudy.37 mph76%29.86 "HgN/A
11:50 PM
Apr 17
43 °FPassing clouds.38 mph71%29.86 "HgN/A
11:20 PM41 °FPassing clouds.41 mph76%29.83 "HgN/A
Weather by CustomWeather, © 2014

See weather overview